Location: East Road
(50.9750°N, 1.0167°E)
Time: 21:27:33
(UTC+00:00)

Daily predictions for brighter satellites

Satellite Brightness Start Highest point End
(mag) Time Altitude Azimuth Time Altitude Azimuth Time Altitude Azimuth
Cosmos 1346 Rocket 4.2 20:54:36 10° N 20:57:52 25° ENE 21:01:06 10° SE
ATLAS 2AS CENTAUR R/B 3.2 20:53:14 10° NW 21:00:03 55° NE 21:06:35 10° ESE
Cosmos 1674 3.1 20:57:26 10° SSW 21:00:51 58° WNW 21:04:18 10° N
IRS-1C Rocket 4.5 20:56:03 10° S 21:01:16 66° WSW 21:06:31 10° NNW
Meteor 1-22 Rocket 4.4 20:56:31 10° N 21:02:05 66° ENE 21:07:50 10° SSE
Cosmos 468 Rocket 4.3 21:00:44 10° NNW 21:05:57 65° WSW 21:11:04 10° S
KORONAS-FOTON 4.1 21:03:47 10° SSW 21:07:28 66° WNW 21:11:13 10° N
Ariane Rocket 3.0 21:03:55 10° SSE 21:09:01 85° ENE 21:14:09 10° NNW
Cosmos 1758 4.0 21:05:29 10° N 21:09:10 39° ENE 21:12:52 10° SE
Cosmos 1842 3.8 21:07:23 10° SSW 21:10:59 55° WNW 21:14:36 10° N
Cosmos 2251 Rocket 4.5 21:06:54 10° SW 21:12:04 54° WNW 21:17:20 10° NNE
COSMOS 2406 3.5 21:11:14 10° SW 21:17:00 76° WNW 21:22:47 10° NNE
SPOT 3 Rocket 3.6 21:12:49 10° SSE 21:17:58 88° WSW 21:23:11 10° NNW
Meteor 1-13 Rocket 4.3 21:14:00 10° S 21:19:48 83° E 21:25:31 10° NNE
Cosmos 1707 Rocket 4.5 21:16:16 10° SSE 21:20:16 33° E 21:24:16 10° NNE
SL-27 R/B 4.0 21:19:33 11° ESE 21:20:37 13° E 21:21:56 10° ENE
Cosmos 1980 Rocket 4.1 21:16:55 10° NW 21:21:24 24° WSW 21:25:51 10° SSW
ARIANE 5 R/B 4.2 21:18:08 10° ESE 21:21:30 22° ENE 21:24:52 10° N
Cosmos 2322 Rocket 2.4 21:16:18 10° NNW 21:22:00 70° ENE 21:27:27 11° SE
S3M 4.1 21:15:45 10° N 21:22:11 90° E 21:28:31 10° S
Genesis I 4.2 21:25:29 10° WSW 21:28:52 45° NW 21:32:20 10° NNE
Cosmos 1655 Rocket 4.2 21:23:50 10° S 21:30:06 61° E 21:36:24 10° NNE
Cosmos 2278 4.1 21:25:13 10° NW 21:30:50 58° WSW 21:36:25 10° S
Landsat 5 3.8 21:27:16 10° NNE 21:31:06 46° E 21:35:02 10° S
SJ 16-02 2.9 21:28:53 12° SE 21:31:30 19° E 21:34:33 10° NE
Landsat 4 4.3 21:33:10 10° S 21:36:30 46° W 21:39:50 10° NNW
Cosmos 1741 Rocket 4.5 21:32:25 10° S 21:37:22 44° ESE 21:42:24 10° NE
USA 281 3.6 21:32:47 10° SE 21:39:09 57° NE 21:45:35 10° NNW
Cosmos 2266 Rocket 4.1 21:33:28 10° S 21:39:48 87° W 21:46:16 10° N
COSMOS 2428 4.3 21:34:57 10° NNW 21:39:49 28° NE 21:44:39 10° E
Cosmos 1400 Rocket 2.7 21:36:02 10° S 21:39:56 86° E 21:43:49 10° NNE
Cosmos 1733 Rocket 3.1 21:36:04 10° N 21:40:29 68° ENE 21:44:16 14° SSE
MetOp-A 4.1 21:37:25 12° SSE 21:42:15 83° ENE 21:47:32 10° NNW
Okean 3 4.2 21:39:26 14° SSE 21:42:35 35° E 21:46:24 10° NNE
Cosmos 1707 4.4 21:39:58 10° SW 21:43:12 31° WNW 21:46:29 10° N
Terra 2.9 21:38:49 10° SSW 21:43:15 41° W 21:47:43 10° NNW
Cosmos 1814 Rocket 4.4 21:40:13 10° NNW 21:45:26 56° ENE 21:50:00 14° SE
Cosmos 968 Rocket 4.1 21:41:01 11° SSE 21:45:26 37° ESE 21:50:12 10° NE
SL-4 R/B 2.0 21:42:49 10° W 21:46:43 85° N 21:50:52 10° E
Cosmos 2228 Rocket 3.2 21:44:44 10° S 21:49:15 71° E 21:53:49 10° NNE
Cosmos 2219 Rocket 2.8 21:45:07 10° NNW 21:50:40 52° NE 21:55:47 12° SE
Cosmos 1315 Rocket 4.1 21:51:04 15° SE 21:53:25 26° E 21:56:46 10° NE
ATLAS CENTAUR R/B 1.8 21:52:13 15° S 21:54:31 29° ESE 21:57:41 10° ENE
Meteor 2-10 Rocket 4.0 21:49:51 10° NNW 21:55:28 66° W 22:00:34 11° S
SeaSat 1 4.3 21:53:17 10° SSW 21:57:02 22° WSW 22:00:49 10° NW
Cosmos 1953 3.1 21:54:41 10° N 21:58:17 36° ENE 22:00:51 16° SE
Cosmos 1455 3.1 21:58:18 10° N 22:01:31 33° ENE 22:03:41 17° SE
H-2A R/B 3.8 21:59:30 13° ESE 22:02:47 31° ENE 22:06:33 10° N
Cosmos 1242 Rocket 4.1 22:04:20 12° ESE 22:04:56 13° E 22:06:20 10° ENE
Meteor 1-23 Rocket 4.5 22:00:12 10° SSW 22:05:51 73° WNW 22:11:37 10° N
USA 234 3.4 21:59:44 10° ENE 22:06:17 81° NNW 22:12:50 10° WSW
Okean 1-7 3.6 22:04:58 18° SSE 22:07:50 41° E 22:11:56 10° NNE
BREEZE-M DEB (TANK) 3.1 22:05:57 10° W 22:07:53 28° SSW 22:09:09 21° SSE
CZ-2C R/B 4.2 22:04:29 10° NNE 22:08:42 42° E 22:11:36 18° SSE
Cosmos 2360 Rocket 2.4 22:08:07 10° NNW 22:13:47 68° WSW 22:18:06 17° SSE
ALOS 2 4.1 22:11:53 11° ESE 22:15:14 26° ENE 22:18:54 10° N
RESURS DK-1 3.4 22:14:46 10° NW 22:18:28 34° WSW 22:21:10 16° S
Cosmos 2333 Rocket 2.4 22:13:06 10° NW 22:18:49 68° WSW 22:23:08 18° SSE
SL-16 R/B 3.4 22:16:14 10° NW 22:21:12 32° WSW 22:25:47 12° SSW
SL-14 R/B 4.0 22:17:38 10° SSW 22:21:19 49° WNW 22:25:02 10° N
Cosmos 1300 4.0 22:20:56 10° NNW 22:24:06 30° W 22:26:54 12° SSW
Atlas Centaur 2 4.4 22:20:17 10° SW 22:24:30 15° S 22:25:49 14° S
EXPRESS MD2 1.7 22:24:22 10° WSW 22:26:39 59° S 22:27:54 21° E
OPS 8737 3.9 22:24:16 10° NW 22:27:12 86° SW 22:28:45 26° SE
Cosmos 2082 Rocket 4.5 22:23:41 10° W 22:28:28 27° NW 22:33:15 10° NNE
BREEZE-M DEB (TANK) 3.9 22:13:55 10° WSW 22:31:26 79° S 22:35:44 10° E
Cosmos 1346 Rocket 4.1 22:30:16 10° NNW 22:33:45 32° W 22:36:35 14° SSW
Aureole 3 3.7 22:30:50 15° SSW 22:33:54 69° WNW 22:38:37 10° N
Cosmos 1703 Rocket 3.9 22:32:44 22° SSE 22:35:27 53° E 22:39:48 10° NNE
Cosmos 1833 4.1 22:30:08 11° SSW 22:35:37 73° ESE 22:41:15 10° NNE
DNEPR-1 R/B 4.4 22:28:49 10° NW 22:35:46 81° SW 22:39:56 19° SSE
Cosmos 1862 Rocket 4.2 22:32:47 11° SSW 22:36:54 54° WNW 22:41:16 10° N
Cosmos 839 Rocket 4.2 22:36:20 10° NW 22:43:21 66° WSW 22:47:42 20° SSE
Meteor 1-4 Rocket 2.4 22:41:49 22° SSW 22:43:32 61° WNW 22:46:32 10° N
Cosmos 2322 3.8 22:39:35 10° NNW 22:45:18 74° ENE 22:49:30 19° SE
Cosmos 2237 Rocket 3.6 22:41:09 10° NNW 22:46:17 33° NE 22:51:21 10° ESE
BlueWalker 3 4.0 22:50:03 12° ESE 22:50:03 12° ESE 22:50:44 10° E
ATLAS 2AS CENTAUR R/B 3.1 22:44:25 10° NW 22:50:56 48° WSW 22:55:16 20° S
SL-27 R/B 3.4 22:50:57 12° SW 22:53:16 34° WNW 22:55:52 10° N
ARIANE 5 R/B 3.1 22:54:58 21° SSW 22:57:36 50° W 23:01:50 10° NNW
PSLV R/B 3.9 22:56:18 10° NNE 23:00:20 82° WNW 23:02:51 22° SSW
Okean 2 3.8 23:00:22 18° SSW 23:03:09 56° WNW 23:07:07 10° N
Cosmos 2322 Rocket 3.8 23:01:06 10° NW 23:05:32 24° WSW 23:09:15 13° SSW
Cosmos 1570 Rocket 4.0 23:00:38 10° NNW 23:06:00 82° WSW 23:09:22 23° SSE
Cosmos 1703 4.4 23:06:48 22° SE 23:08:10 28° E 23:11:22 10° NNE
SJ 16-02 1.9 23:05:35 12° SW 23:09:26 55° WNW 23:13:42 10° NNE
Cosmos 1745 Rocket 4.0 23:05:11 21° S 23:09:37 77° E 23:16:00 10° NNE
Cosmos 1241 Rocket 4.4 23:04:16 10° SSW 23:10:26 81° SE 23:16:44 10° NE
COSMOS 2455 3.7 23:08:59 21° SSE 23:11:50 32° ESE 23:17:06 10° NE
Cosmos 2297 Rocket 3.5 23:13:10 18° SE 23:15:39 24° ESE 23:20:06 10° NE
Nadezhda 1 Rocket 4.1 23:11:10 10° NNW 23:17:29 72° W 23:21:42 22° S
GP-B 3.8 23:14:57 10° N 23:19:12 46° W 23:22:05 19° SSW
Cosmos 1408 2.1 23:22:14 43° SSE 23:23:01 66° E 23:25:59 10° NNE
USA 281 4.0 23:19:37 18° SSW 23:23:54 38° WSW 23:29:59 10° NW
COSMOS 2428 2.7 23:18:56 10° NNW 23:24:38 74° WSW 23:28:13 24° SSE
SL-4 R/B 1.9 23:21:33 10° W 23:25:35 87° SSW 23:29:52 10° ESE
Cosmos 1315 Rocket 4.2 23:26:20 13° SW 23:29:27 32° WNW 23:33:06 10° N
GEOS 3 Rocket 4.5 23:24:54 10° ENE 23:29:29 31° ESE 23:31:28 24° SSE
Cosmos 1782 Rocket 4.0 23:27:50 10° NNW 23:32:02 51° W 23:34:15 25° SSW
ATLAS CENTAUR R/B 2.5 23:28:48 10° WSW 23:32:05 36° NW 23:35:30 10° NNE
Cosmos 1953 4.1 23:30:57 10° NW 23:33:53 21° W 23:35:58 14° SW
Cosmos 2219 Rocket 3.2 23:29:24 10° NW 23:34:25 33° WSW 23:37:28 20° SSW
Cosmos 1455 4.0 23:33:09 10° NW 23:35:44 20° W 23:37:25 14° WSW
Cosmos 2208 Rocket 4.1 23:31:34 10° NNW 23:36:43 61° WSW 23:39:34 26° S
Cosmos 1242 Rocket 3.4 23:35:32 21° WSW 23:36:43 29° WNW 23:39:13 10° N
H-2A R/B 3.6 23:35:29 21° SSW 23:37:39 34° W 23:41:36 10° NNW
Cosmos 158 Rocket 4.2 23:33:56 10° NNW 23:39:12 63° WSW 23:42:07 26° S
Cosmos 1892 4.3 23:38:13 17° ESE 23:39:29 21° E 23:42:12 10° NE
Cosmos 371 Rocket 3.6 23:38:59 27° SSE 23:41:19 50° ESE 23:45:59 10° NNE
BREEZE-M DEB (TANK) 3.9 23:38:48 10° W 23:42:18 78° S 23:53:59 10° E
USA 129 4.2 23:43:11 10° N 23:44:00 15° NNW 23:44:00 15° NNW
Cosmos 773 Rocket 3.9 23:41:26 10° NNW 23:46:37 88° ENE 23:49:51 23° SSE
Cosmos 2151 Rocket 4.0 23:43:11 10° N 23:47:32 54° ENE 23:50:04 23° SE
USA 234 4.1 23:42:42 10° ENE 23:49:01 54° N 23:55:22 10° W
ALOS 2 3.3 23:49:16 25° SSW 23:51:24 42° W 23:55:36 10° NNW
GENESIS II 3.9 23:49:40 28° SW 23:51:28 83° SE 23:55:08 10° NE
Cosmos 1300 Rocket 4.5 23:50:14 10° NNW 23:54:12 37° W 23:56:18 22° SW
Cosmos 1503 Rocket 4.4 23:51:55 25° S 23:54:47 52° ESE 23:59:56 10° NNE
Okean 2 Rocket 3.5 23:50:28 10° N 23:54:53 59° ENE 23:57:29 23° SSE
Cosmos 2360 Rocket 4.4 23:54:32 10° WNW 23:56:41 12° W 23:58:50 10° WSW
